Weather History for Alva, OK

Change the Weather History Date:

Monday, April 14, 2014

  Actual Average Record
Temperature  
Mean Temperature 39 °F -  
Max Temperature 48 °F 72 °F 89 °F (2002)
Min Temperature 30 °F 43 °F 28 °F (1957)
Degree Days  
Heating Degree Days 26    
Moisture  
Dew Point 23 °F    
Average Humidity 59    
Maximum Humidity 100    
Minimum Humidity 24    
Precipitation  
Precipitation 0.44 in - - ()
Sea Level Pressure  
Sea Level Pressure 30.18 in    
Wind  
Wind Speed 20 mph (NNW)    
Max Wind Speed 28 mph    
Max Gust Speed 38 mph    
Visibility 9 miles    
Events Rain , Snow    
Averages and records for this station are not official NWS values.
T = Trace of Precipitation, MM = Missing Value Source: NWS Daily Summary

Daily Weather History Graph

Daily Weather History Graph

Search for Another Location

Airport:

Trip Planner

Search our weather history database for the weather conditions in past years. The results will help you decide how hot, cold, wet, or windy it might be!

Date:

Astronomy

Apr. 14, 2014 Rise Set
Actual Time 7:02 AM CDT 8:08 PM CDT
Civil Twilight 6:35 AM CDT 8:35 PM CDT
Nautical Twilight 6:03 AM CDT 9:06 PM CDT
Astronomical Twilight 5:30 AM CDT 9:39 PM CDT
Moon 7:49 PM CDT (4/14) 6:33 AM CDT (4/14)
Length of Visible Light 13h 59m
Length of Day
13h 06m
Full, 100% of the Moon is Illuminated
Apr 14
Full
Apr 15
Full
Apr 22
Last Quarter
Apr 29
New
May 6
First Quarter

Hourly Weather History & Observations

Time (CDT) Temp. Windchill Dew Point Humidity Pressure Visibility Wind Dir Wind Speed Gust Speed Precip Events Conditions
12:10 AM 37.4 °F 26.6 °F 28.4 °F 70% 29.95 in 10.0 mi North 21.9 mph 33.4 mph N/A   Overcast
12:30 AM 37.4 °F 25.9 °F 28.4 °F 70% 29.93 in 10.0 mi North 25.3 mph 34.5 mph N/A   Overcast
12:50 AM 37.4 °F 26.6 °F 28.4 °F 70% 29.98 in 10.0 mi North 21.9 mph 34.5 mph N/A   Overcast
1:10 AM 37.4 °F 26.4 °F 28.4 °F 70% 29.98 in 10.0 mi North 23.0 mph 32.2 mph N/A   Overcast
1:30 AM 37.4 °F 28.9 °F 28.4 °F 70% 30.02 in 10.0 mi North 13.8 mph 32.2 mph N/A   Overcast
1:50 AM 37.4 °F 26.4 °F 26.6 °F 65% 30.05 in 10.0 mi North 23.0 mph 29.9 mph N/A   Overcast
2:10 AM 37.4 °F 26.4 °F 26.6 °F 65% 30.04 in 10.0 mi North 23.0 mph 29.9 mph N/A   Overcast
2:35 AM 37.4 °F 28.2 °F 26.6 °F 65% 30.02 in 10.0 mi North 16.1 mph 31.1 mph N/A   Overcast
2:50 AM 37.4 °F 25.9 °F 28.4 °F 70% 30.03 in 6.0 mi North 25.3 mph 33.4 mph N/A Snow Light Snow
3:10 AM 33.8 °F 23.2 °F 32.0 °F 93% 30.06 in 2.5 mi North 17.3 mph 24.2 mph 0.01 in Snow Light Snow
3:30 AM 33.8 °F 22.5 °F 32.0 °F 93% 30.06 in 9.0 mi North 19.6 mph 28.8 mph 0.03 in Rain Light Rain
3:50 AM 33.8 °F 23.2 °F 32.0 °F 93% 30.06 in 10.0 mi North 17.3 mph 27.6 mph 0.03 in   Overcast
4:10 AM 32.0 °F 20.5 °F 32.0 °F 100% 30.08 in 1.2 mi NNW 18.4 mph - 0.04 in Snow Light Snow
4:30 AM 32.0 °F 21.2 °F 32.0 °F 100% 30.08 in 3.0 mi North 16.1 mph 28.8 mph 0.11 in Snow Light Snow
4:50 AM 32.0 °F 18.6 °F 32.0 °F 100% 30.09 in 2.0 mi North 25.3 mph 29.9 mph 0.13 in Snow Light Snow
5:10 AM 32.0 °F 19.5 °F 32.0 °F 100% 30.09 in 1.8 mi North 21.9 mph 26.5 mph 0.02 in Snow Light Snow
5:30 AM 32.0 °F 19.5 °F 32.0 °F 100% 30.10 in 1.2 mi North 21.9 mph 27.6 mph 0.13 in Snow Light Snow
5:50 AM 32.0 °F 21.2 °F 32.0 °F 100% 30.10 in 2.0 mi North 16.1 mph 29.9 mph 0.21 in Snow Light Snow
6:10 AM 32.0 °F 19.5 °F 32.0 °F 100% 30.10 in 2.0 mi North 21.9 mph 29.9 mph 0.01 in Snow Light Snow
6:35 AM 32.0 °F 19.2 °F 30.2 °F 93% 30.11 in 3.0 mi North 23.0 mph 38.0 mph 0.05 in Snow Light Snow
6:50 AM 32.0 °F 19.8 °F 30.2 °F 93% 30.13 in 4.0 mi North 20.7 mph 31.1 mph 0.05 in Snow Light Snow
7:10 AM 32.0 °F 18.4 °F 28.4 °F 87% 30.14 in 3.0 mi North 26.5 mph 34.5 mph N/A Snow Light Snow
7:30 AM 32.0 °F 18.9 °F 28.4 °F 87% 30.15 in 2.5 mi North 24.2 mph 34.5 mph 0.02 in Snow Light Snow
7:50 AM 32.0 °F 20.1 °F 26.6 °F 80% 30.16 in 10.0 mi North 19.6 mph 31.1 mph 0.02 in Rain Light Rain
8:10 AM 32.0 °F 20.1 °F 26.6 °F 80% 30.18 in 10.0 mi North 19.6 mph 26.5 mph N/A   Mostly Cloudy
8:35 AM 32.0 °F 20.1 °F 26.6 °F 80% 30.20 in 10.0 mi North 19.6 mph 25.3 mph N/A   Mostly Cloudy
8:50 AM 32.0 °F 19.5 °F 26.6 °F 80% 30.20 in 10.0 mi North 21.9 mph 27.6 mph N/A Rain Light Rain
9:10 AM 33.8 °F 21.9 °F 24.8 °F 70% 30.21 in 10.0 mi North 21.9 mph 29.9 mph N/A   Clear
9:30 AM 33.8 °F 21.6 °F 24.8 °F 70% 30.22 in 10.0 mi North 23.0 mph 31.1 mph N/A   Scattered Clouds
9:50 AM 33.8 °F 22.2 °F 24.8 °F 70% 30.23 in 10.0 mi North 20.7 mph 32.2 mph N/A   Scattered Clouds
10:10 AM 35.6 °F 25.2 °F 24.8 °F 65% 30.24 in 10.0 mi North 18.4 mph 32.2 mph N/A   Mostly Cloudy
10:30 AM 37.4 °F 26.1 °F 24.8 °F 60% 30.24 in 10.0 mi North 24.2 mph 33.4 mph N/A   Overcast
10:50 AM 37.4 °F 27.8 °F 24.8 °F 60% 30.25 in 10.0 mi North 17.3 mph 28.8 mph N/A   Mostly Cloudy
11:10 AM 37.4 °F 27.2 °F 26.6 °F 65% 30.26 in 10.0 mi NNW 19.6 mph 25.3 mph N/A   Mostly Cloudy
11:35 AM 37.4 °F 26.9 °F 24.8 °F 60% 30.27 in 10.0 mi North 20.7 mph 31.1 mph N/A   Scattered Clouds
11:50 AM 39.2 °F 29.3 °F 24.8 °F 56% 30.27 in 10.0 mi NNW 20.7 mph 29.9 mph N/A   Clear
12:15 PM 41.0 °F 31.9 °F 24.8 °F 53% 30.27 in 10.0 mi North 19.6 mph 26.5 mph N/A   Mostly Cloudy
12:30 PM 41.0 °F 31.1 °F 26.6 °F 57% 30.26 in 10.0 mi NNW 23.0 mph 32.2 mph N/A   Overcast
12:55 PM 42.8 °F 35.1 °F 26.6 °F 53% 30.26 in 10.0 mi North 16.1 mph 26.5 mph N/A   Mostly Cloudy
1:10 PM 44.6 °F 36.1 °F 24.8 °F 46% 30.26 in 10.0 mi North 21.9 mph 29.9 mph N/A   Mostly Cloudy
1:30 PM 44.6 °F 36.4 °F 23.0 °F 43% 30.25 in 10.0 mi North 20.7 mph 31.1 mph N/A   Partly Cloudy
1:50 PM 44.6 °F 36.4 °F 19.4 °F 37% 30.25 in 10.0 mi North 20.7 mph 31.1 mph N/A   Clear
2:10 PM 44.6 °F 36.1 °F 19.4 °F 37% 30.24 in 10.0 mi NNW 21.9 mph 29.9 mph N/A   Clear
2:30 PM 46.4 °F 38.3 °F 17.6 °F 32% 30.24 in 10.0 mi North 23.0 mph 33.4 mph N/A   Clear
2:50 PM 46.4 °F 39.2 °F 17.6 °F 32% 30.24 in 10.0 mi North 18.4 mph 32.2 mph N/A   Clear
3:10 PM 48.2 °F - 17.6 °F 30% 30.24 in 10.0 mi North 25.3 mph 34.5 mph N/A   Clear
3:30 PM 48.2 °F - 15.8 °F 27% 30.24 in 10.0 mi North 27.6 mph 34.5 mph N/A   Clear
3:50 PM 48.2 °F - 17.6 °F 30% 30.23 in 10.0 mi North 19.6 mph 28.8 mph N/A   Clear
4:10 PM 48.2 °F - 15.8 °F 27% 30.23 in 10.0 mi North 21.9 mph 32.2 mph N/A   Clear
4:30 PM 48.2 °F - 15.8 °F 27% 30.22 in 10.0 mi NNE 24.2 mph 32.2 mph N/A   Clear
4:50 PM 48.2 °F - 14.0 °F 25% 30.22 in 10.0 mi NNE 20.7 mph 33.4 mph N/A   Clear
5:10 PM 48.2 °F - 14.0 °F 25% 30.22 in 10.0 mi North 18.4 mph 24.2 mph N/A   Clear
5:35 PM 48.2 °F - 14.0 °F 25% 30.22 in 10.0 mi North 17.3 mph 26.5 mph N/A   Clear
5:50 PM 48.2 °F - 12.2 °F 24% 30.22 in 10.0 mi North 16.1 mph 32.2 mph N/A   Clear
6:10 PM 48.2 °F - 14.0 °F 25% 30.22 in 10.0 mi North 20.7 mph 26.5 mph N/A   Clear
6:30 PM 48.2 °F - 12.2 °F 24% 30.22 in 10.0 mi North 15.0 mph 21.9 mph N/A   Clear
6:50 PM 48.2 °F - 14.0 °F 25% 30.22 in 10.0 mi North 18.4 mph 24.2 mph N/A   Partly Cloudy
7:10 PM 46.4 °F 39.8 °F 12.2 °F 25% 30.22 in 10.0 mi North 16.1 mph 19.6 mph N/A   Partly Cloudy
7:30 PM 46.4 °F 40.4 °F 12.2 °F 25% 30.22 in 10.0 mi NNW 13.8 mph - N/A   Clear
7:50 PM 44.6 °F 39.7 °F 14.0 °F 29% 30.22 in 10.0 mi NNW 9.2 mph - N/A   Partly Cloudy
8:10 PM 42.8 °F 37.5 °F 14.0 °F 31% 30.22 in 10.0 mi North 9.2 mph - N/A   Partly Cloudy
8:30 PM 41.0 °F 37.1 °F 15.8 °F 36% 30.22 in 10.0 mi NNW 5.8 mph - N/A   Clear
8:50 PM 41.0 °F 38.0 °F 14.0 °F 33% 30.23 in 10.0 mi NNW 4.6 mph - N/A   Partly Cloudy
9:10 PM 39.2 °F 35.9 °F 15.8 °F 39% 30.23 in 10.0 mi WNW 4.6 mph - N/A   Clear
9:30 PM 37.4 °F 32.1 °F 15.8 °F 41% 30.23 in 10.0 mi NW 6.9 mph - N/A   Partly Cloudy
9:50 PM 32.0 °F 24.2 °F 19.4 °F 60% 30.24 in 10.0 mi WNW 9.2 mph - N/A   Clear
10:10 PM 32.0 °F 24.8 °F 19.4 °F 60% 30.25 in 10.0 mi NW 8.1 mph - N/A   Partly Cloudy
10:30 PM 32.0 °F 24.2 °F 17.6 °F 55% 30.26 in 10.0 mi WNW 9.2 mph - N/A   Partly Cloudy
11:10 PM 30.2 °F 21.9 °F 19.4 °F 64% 30.26 in 10.0 mi WNW 9.2 mph - N/A   Partly Cloudy
11:30 PM 30.2 °F 22.6 °F 19.4 °F 64% 30.25 in 10.0 mi WNW 8.1 mph - N/A   Partly Cloudy